Hourly Weather Roundup
Issued by NWS Central Illinois

Home | Current Version | Previous Version | Text Only | Print | Product List | Glossary On
Versions: 1 2 3 4 5 6 7 8 9 10 11 12 13 14 15 16 17 18 19 20 21 22 23 24 25 26 27 28 29 30 31 32 33 34 35 36 37 38 39 40 41 42 43 44 45 46 47 48 49 50
000
NZUS43 KILX 231310
HWRILX

AREA WEATHER ROUNDUP
NATIONAL WEATHER SERVICE, LINCOLN IL
700 AM CST SUN NOV 23 2014


CITY           SKY/WX    TMP DP  RH WIND       PRES   REMARKS
BLOOMINGTON    CLOUDY    47  43  86 S15       29.76F
CHAMPAIGN      CLOUDY    48  43  82 S13       29.80F
DECATUR        CLOUDY    50  44  80 S14       29.78F
FLORA          CLOUDY    51  44  76 SE15      29.81F
GALESBURG      HVY RAIN  48  46  92 SE7       29.68F
JACKSONVILLE   CLOUDY    54  47  78 S14       29.70F
LACON          CLOUDY    50  42  73 S12       29.71F
LAWRENCEVILLE  CLOUDY    52  42  69 S15       29.87S
LITCHFIELD     CLOUDY    49  43  81 SE15      29.75F
$$


CITY           SKY/WX    TMP DP  RH WIND       PRES   REMARKS
LINCOLN        LGT RAIN  51  45  79 S8        29.74F
MACOMB         HVY RAIN  49  48  95 S15       29.69F
MATTOON        CLOUDY    48  41  76 S14       29.80S
MT CARMEL AP   CLOUDY    54  41  62 SE13G21   29.85F
OLNEY-NOBLE AP CLOUDY    50  43  76 SE10      29.83F
PARIS          CLOUDY    49  44  81 SE13      29.84S
PEORIA         LGT RAIN  52  43  71 S13       29.72F
PONTIAC        CLOUDY    48  44  84 S15G24    29.75F
RANTOUL        MOCLDY    47  43  86 SE8       29.80F
ROBINSON       CLOUDY    51  42  72 S9G17     29.86S
SPRINGFIELD    CLOUDY    51  44  77 S16       29.74F
TAYLORVILLE    CLOUDY    50  45  81 S14       29.75S
$$

...REGIONAL REPORTS...


CITY           SKY/WX    TMP DP  RH WIND       PRES   REMARKS
CHICAGO O`HARE CLOUDY    49  41  74 S15       29.74S
KANKAKEE       CLOUDY    49  43  80 S15       29.79R
MOLINE         LGT RAIN  52  47  83 S13       29.65F
MOUNT VERNON   CLOUDY    52  41  66 SE8       29.80F
PITTSFIELD     CLOUDY    53  47  81 S15       29.69F
QUINCY         LGT RAIN  51  48  89 S12       29.64F
ROCKFORD       CLOUDY    48  44  86 S12       29.72S
$$


CITY           SKY/WX    TMP DP  RH WIND       PRES   REMARKS
BURLINGTON     HVY RAIN  50  49  96 S9        29.64F FOG
CEDAR RAPIDS   CLOUDY    49  49 100 S8        29.60F FOG
DES MOINES     DRIZZLE   53  50  89 S14       29.53F
KIRKSVILLE     RAIN      51  50  96 SE10      29.60F FOG
OTTUMWA        LGT RAIN  51  49  92 S12       29.58F
ST LOUIS       CLOUDY    54  45  71 SE12      29.73F
$$


CITY           SKY/WX    TMP DP  RH WIND       PRES   REMARKS
TERRE HAUTE    MOCLDY    50  41  71 S13       29.86F
EVANSVILLE     CLOUDY    53  39  59 SE8       29.88F
INDIANAPOLIS   MOCLDY    46  39  76 SE9       29.88F
LAFAYETTE      CLOUDY    49  43  80 S7        29.85F
MADISON        DRIZZLE   49  47  93 S9        29.64F FOG
MILWAUKEE      CLOUDY    49  46  90 S10       29.71S FOG
$$




USA.gov is the U.S. government's official web portal to all federal, state and local government web resources and services.